Akron, CO

3:33 AM MDT on October 15, 2019 (GMT -0600)
Akron-Washington County

Weather History for KAKO - August, 2019

Change the Weather History Date:

Sunday, August 18, 2019

  Actual Average Record
Temperature  
Mean Temperature 72 °F 72 °F  
Max Temperature 90 °F 86 °F 100 °F (1938)
Min Temperature 53 °F 58 °F 47 °F (1968)
Degree Days  
Heating Degree Days 0    
Month to date heating degree days 0  
Cooling Degree Days 7    
Month to date cooling degree days 178  
Growing Degree Days 21 (Base 50)    
Moisture  
Dew Point 55 °F    
Average Humidity 63    
Maximum Humidity 93    
Minimum Humidity 32    
Precipitation  
Precipitation 0.00 in 0.07 in 1.55 in (1979)
Month to date precipitation 2.77 1.51  
Year to date precipitation 13.86 12.70  
Snow  
Snow 0.00 in - - ()
Snow Depth 0.00 in    
Sea Level Pressure  
Sea Level Pressure 29.91 in    
Wind  
Wind Speed 12 mph (ENE)    
Max Wind Speed 23 mph    
Max Gust Speed 33 mph    
Visibility 10 miles    
Events      
T = Trace of Precipitation, MM = Missing Value Source: NWS Daily Summary

Daily Weather History Graph

Daily Weather History Graph

Search for Another Location

Airport or City:

Astronomy

Aug. 18, 2019 Rise Set
Actual Time 6:06 AM MDT 7:45 PM MDT
Civil Twilight 5:38 AM MDT 8:14 PM MDT
Nautical Twilight 5:03 AM MDT 8:49 PM MDT
Astronomical Twilight 4:25 AM MDT 9:26 PM MDT
Moon 9:41 PM MDT (8/18) 8:54 AM MDT (8/18)
Length of Visible Light 14h 36m
Length of Day
13h 38m
Waning Gibbous, 91% of the Moon is Illuminated
Aug 18
Waning Gibbous
Aug 23
Last Quarter
Aug 30
New
Sep 5
First Quarter
Sep 13
Full

Hourly Weather History & Observations

Time (MDT) Temp. Heat Index Dew Point Humidity Pressure Visibility Wind Dir Wind Speed Gust Speed Precip Events Conditions
12:53 AM 69.1 °F - 46.0 °F 44% 29.73 in 10.0 mi NW 13.8 mph 25.3 mph N/A   Clear
1:00 AM 66.9 °F - 46.0 °F 47% 29.93 in 10.0 mi WNW 12.7 mph - N/A   Clear
1:53 AM 62.1 °F - 46.0 °F 56% 29.76 in 10.0 mi NW 15.0 mph - N/A   Clear
2:14 AM 59.0 °F - 54.0 °F 83% 29.97 in 10.0 mi North 11.5 mph - N/A   Scattered Clouds
2:23 AM 60.1 °F - 57.9 °F 93% 29.97 in 10.0 mi North 15.0 mph - N/A   Mostly Cloudy
2:30 AM 60.1 °F - 57.9 °F 93% 29.97 in 10.0 mi North 19.6 mph 25.3 mph N/A   Mostly Cloudy
2:53 AM 61.0 °F - 57.9 °F 90% 29.79 in 10.0 mi North 12.7 mph - N/A   Overcast
3:42 AM 59.0 °F - 57.0 °F 93% 29.99 in 10.0 mi North 13.8 mph - N/A   Scattered Clouds
3:53 AM 59.0 °F - 57.0 °F 93% 29.81 in 10.0 mi NNE 13.8 mph - N/A   Scattered Clouds
4:25 AM 57.9 °F - 57.0 °F 97% 30.00 in 10.0 mi NNE 13.8 mph - N/A   Mostly Cloudy
4:35 AM 57.0 °F - 55.9 °F 96% 30.00 in 10.0 mi NNE 11.5 mph - N/A   Mostly Cloudy
4:46 AM 55.9 °F - 55.0 °F 97% 30.00 in 10.0 mi NNE 9.2 mph - N/A   Scattered Clouds
4:53 AM 55.9 °F - 54.0 °F 93% 29.85 in 10.0 mi NNE 10.4 mph - N/A   Partly Cloudy
5:53 AM 53.1 °F - 51.1 °F 93% 29.89 in 10.0 mi ENE 8.1 mph - N/A   Scattered Clouds
6:09 AM 53.1 °F - 51.1 °F 93% 30.04 in 10.0 mi ENE 9.2 mph - N/A   Mostly Cloudy
6:39 AM 54.0 °F - 52.0 °F 93% 30.05 in 8.0 mi ENE 10.4 mph - N/A   Overcast
6:53 AM 54.0 °F - 52.0 °F 93% 29.92 in 4.0 mi ENE 6.9 mph 17.3 mph N/A   Overcast
7:53 AM 55.0 °F - 53.1 °F 93% 29.94 in 10.0 mi East 8.1 mph - N/A   Overcast
8:03 AM 55.9 °F - 53.1 °F 90% 30.08 in 10.0 mi East 8.1 mph - N/A   Overcast
8:53 AM 57.0 °F - 54.0 °F 89% 29.94 in 10.0 mi East 3.5 mph - N/A   Overcast
9:22 AM 57.9 °F - 55.0 °F 90% 30.07 in 10.0 mi Calm Calm - N/A   Overcast
9:40 AM 59.0 °F - 55.0 °F 87% 30.08 in 10.0 mi Calm Calm - N/A   Overcast
9:53 AM 60.1 °F - 55.0 °F 83% 29.95 in 10.0 mi Variable 3.5 mph - N/A   Overcast
10:53 AM 63.0 °F - 55.0 °F 75% 29.94 in 10.0 mi Variable 3.5 mph - N/A   Overcast
11:28 AM 66.0 °F - 55.9 °F 70% 30.07 in 10.0 mi Variable 5.8 mph - N/A   Partly Cloudy
11:53 AM 68.0 °F - 55.9 °F 65% 29.92 in 10.0 mi Variable 5.8 mph - N/A   Clear
12:53 PM 73.9 °F - 57.0 °F 55% 29.87 in 10.0 mi SSW 8.1 mph - N/A   Clear
1:53 PM 79.0 °F - 57.0 °F 47% 29.86 in 10.0 mi Variable 5.8 mph - N/A   Clear
2:53 PM 84.9 °F 83.7 °F 55.9 °F 37% 29.82 in 10.0 mi SSW 8.1 mph 18.4 mph N/A   Clear
3:53 PM 89.1 °F 87.1 °F 55.0 °F 31% 29.79 in 10.0 mi South 8.1 mph - N/A   Clear
4:53 PM 88.0 °F 86.9 °F 57.9 °F 36% 29.79 in 10.0 mi SE 18.4 mph 25.3 mph N/A   Clear
5:53 PM 84.9 °F 84.8 °F 60.1 °F 43% 29.81 in 10.0 mi SSE 17.3 mph - N/A   Clear
6:53 PM 84.0 °F 83.8 °F 59.0 °F 43% 29.80 in 10.0 mi SSE 21.9 mph 26.5 mph N/A   Clear
7:53 PM 80.1 °F 80.7 °F 59.0 °F 48% 29.82 in 10.0 mi South 16.1 mph - N/A   Clear
8:53 PM 75.9 °F - 60.1 °F 58% 29.84 in 10.0 mi South 11.5 mph - N/A   Clear
9:53 PM 75.0 °F - 60.1 °F 60% 29.85 in 10.0 mi South 15.0 mph - N/A   Clear
10:53 PM 75.9 °F - 57.9 °F 54% 29.85 in 10.0 mi South 16.1 mph 23.0 mph N/A   Clear
11:53 PM 75.0 °F - 59.0 °F 57% 29.85 in 10.0 mi South 19.6 mph 28.8 mph N/A   Clear